Starlink 36156

operational
NORAD ID: 67006 Int'l Des: 2025-293 Owner: SPXS Country: US Constellation: starlink
LEOCIRCULAR

About Starlink 36156

Description loading...

Live Position

Loading 3D Globe...

Upcoming Passes

Altitude History

Altitude vs Time

uPlot chart will show altitude changes over time

Two-Line Element Set

1 67006C 25293D 25346.10048611 -.00450090 00000+0 -63609-3 0 3463
2 67006 69.9975 325.9372 0004184 272.0616 174.9782 16.05896286 18
Epoch: Dec 12, 2025 • Age: 50 hours

Current Status

Altitude 280.8 km
Velocity 7.74 km/s
Sub-Earth Point -53.04°S, 176.74°W
Launch Date Dec 10, 2025
Age 3 days
Type internet

Technical Details

Classification Payload
Mass 575.00 kg
Dry Mass 530.00 kg
Total Mass 575.00 kg
Length 0.30 m
Diameter 4.10 m
Span 29.00 m
Shape Box + pan
Manufacturer SPXS
Bus Type Starlink V2MO
Phase Status In Orbit
Owner/State SPXS/US

Large Constellations

Loading constellations...